Nampa, ID

7:25 PM MST on February 10, 2016 (GMT -0700)
Nampa

Weather History for KMAN - March, 2013

Change the Weather History Date:

Saturday, March 9, 2013

  Actual Average (KBOI) Record (KBOI)
Temperature  
Mean Temperature 43 °F 43 °F  
Max Temperature 53 °F 53 °F 76 °F (1972)
Min Temperature 33 °F 33 °F 14 °F (1893)
Degree Days  
Heating Degree Days 22 22  
Month to date heating degree days 209  
Since 1 July heating degree days 4368  
Cooling Degree Days 0 0  
Month to date cooling degree days 0  
Year to date cooling degree days 0  
Moisture  
Dew Point 22 °F    
Average Humidity 47    
Maximum Humidity 70    
Minimum Humidity 24    
Precipitation  
Precipitation 0.00 in 0.04 in 1.15 in (1879)
Month to date precipitation 0.38  
Year to date precipitation 2.61  
Snow  
Snow 0.00 in 0.00 in 6.20 in (1917)
Month to date snowfall 0.5  
Since 1 July snowfall 18.1  
Snow Depth -    
Sea Level Pressure  
Sea Level Pressure 30.20 in    
Wind  
Wind Speed 14 mph (NW)    
Max Wind Speed 22 mph    
Max Gust Speed 30 mph    
Visibility 10 miles    
Events      
T = Trace of Precipitation, MM = Missing Value Source: NWS Daily Summary

Daily Weather History Graph

Daily Weather History Graph

Search for Another Location

Airport or City:

Trip Planner

Search our weather history database for the weather conditions in past years. The results will help you decide how hot, cold, wet, or windy it might be!

Date:

Astronomy

Mar. 09, 2013 Rise Set
Actual Time 7:08 AM MST 6:45 PM MST
Civil Twilight 6:39 AM MST 7:13 PM MST
Nautical Twilight 6:06 AM MST 7:47 PM MST
Astronomical Twilight 5:33 AM MST 8:20 PM MST
Moon 5:38 AM MST (3/9) 4:50 PM MST (3/9)
Length of Visible Light 12h 34m
Length of Day
11h 37m
Waning Crescent, 5% of the Moon is Illuminated
Mar 9
Waning Crescent
Mar 11
New
Mar 19
First Quarter
Mar 27
Full
Apr 2
Last Quarter

Hourly Weather History & Observations

Time (MST) Temp. Windchill Dew Point Humidity Pressure Visibility Wind Dir Wind Speed Gust Speed Precip Events Conditions
12:15 AM 37.4 °F 29.3 °F 24.8 °F 60% 29.98 in 10.0 mi WNW 12.7 mph 18.4 mph N/A   Clear
12:35 AM 37.4 °F 29.3 °F 24.8 °F 60% 29.99 in 10.0 mi NW 12.7 mph - N/A   Clear
12:55 AM 37.4 °F 28.9 °F 24.8 °F 60% 30.00 in 10.0 mi WNW 13.8 mph 18.4 mph N/A   Clear
1:15 AM 37.4 °F 28.9 °F 24.8 °F 60% 30.01 in 10.0 mi WNW 13.8 mph 20.7 mph N/A   Clear
1:35 AM 37.4 °F 28.9 °F 24.8 °F 60% 30.01 in 10.0 mi WNW 13.8 mph - N/A   Clear
1:55 AM 37.4 °F 29.8 °F 24.8 °F 60% 30.02 in 10.0 mi WNW 11.5 mph - N/A   Clear
2:15 AM 35.6 °F 27.5 °F 24.8 °F 65% 30.03 in 10.0 mi WNW 11.5 mph 18.4 mph N/A   Clear
2:35 AM 35.6 °F 26.6 °F 24.8 °F 65% 30.03 in 10.0 mi WNW 13.8 mph 19.6 mph N/A   Clear
2:55 AM 35.6 °F 26.2 °F 24.8 °F 65% 30.03 in 10.0 mi WNW 15.0 mph - N/A   Clear
3:15 AM 35.6 °F 28.0 °F 24.8 °F 65% 30.04 in 10.0 mi NW 10.4 mph - N/A   Clear
3:35 AM 35.6 °F 27.5 °F 24.8 °F 65% 30.05 in 10.0 mi WNW 11.5 mph - N/A   Clear
3:55 AM 35.6 °F 26.6 °F 24.8 °F 65% 30.05 in 10.0 mi WNW 13.8 mph - N/A   Clear
4:15 AM 35.6 °F 27.5 °F 24.8 °F 65% 30.06 in 10.0 mi NW 11.5 mph 18.4 mph N/A   Clear
4:35 AM 35.6 °F 26.6 °F 24.8 °F 65% 30.07 in 10.0 mi WNW 13.8 mph - N/A   Clear
4:55 AM 35.6 °F 27.5 °F 24.8 °F 65% 30.08 in 10.0 mi WNW 11.5 mph - N/A   Clear
5:15 AM 33.8 °F 25.8 °F 24.8 °F 70% 30.09 in 10.0 mi WNW 10.4 mph 17.3 mph N/A   Clear
5:35 AM 33.8 °F 24.8 °F 24.8 °F 70% 30.10 in 10.0 mi WNW 12.7 mph 18.4 mph N/A   Clear
5:55 AM 33.8 °F 24.8 °F 24.8 °F 70% 30.11 in 10.0 mi WNW 12.7 mph - N/A   Clear
6:15 AM 33.8 °F 24.8 °F 24.8 °F 70% 30.12 in 10.0 mi WNW 12.7 mph 19.6 mph N/A   Clear
6:35 AM 33.8 °F 24.8 °F 24.8 °F 70% 30.13 in 10.0 mi NW 12.7 mph 17.3 mph N/A   Clear
6:55 AM 33.8 °F 24.3 °F 24.8 °F 70% 30.13 in 10.0 mi WNW 13.8 mph 19.6 mph N/A   Clear
7:15 AM 33.8 °F 23.5 °F 24.8 °F 70% 30.14 in 10.0 mi WNW 16.1 mph 23.0 mph N/A   Clear
7:35 AM 33.8 °F 23.2 °F 24.8 °F 70% 30.15 in 10.0 mi WNW 17.3 mph 23.0 mph N/A   Clear
7:55 AM 35.6 °F 27.5 °F 24.8 °F 65% 30.16 in 10.0 mi NW 11.5 mph 18.4 mph N/A   Clear
8:15 AM 35.6 °F 26.2 °F 24.8 °F 65% 30.17 in 10.0 mi NW 15.0 mph 20.7 mph N/A   Clear
8:35 AM 37.4 °F 28.5 °F 24.8 °F 60% 30.18 in 10.0 mi NW 15.0 mph 21.9 mph N/A   Clear
8:55 AM 37.4 °F 28.2 °F 24.8 °F 60% 30.19 in 10.0 mi NW 16.1 mph 23.0 mph N/A   Clear
9:15 AM 39.2 °F 30.8 °F 24.8 °F 56% 30.20 in 10.0 mi NW 15.0 mph 19.6 mph N/A   Clear
9:35 AM 41.0 °F 32.8 °F 23.0 °F 49% 30.21 in 10.0 mi NW 16.1 mph 23.0 mph N/A   Clear
9:55 AM 41.0 °F 33.1 °F 23.0 °F 49% 30.22 in 10.0 mi NW 15.0 mph 21.9 mph N/A   Clear
10:15 AM 44.6 °F 37.2 °F 19.4 °F 37% 30.22 in 10.0 mi NNW 17.3 mph 24.2 mph N/A   Clear
10:35 AM 44.6 °F 36.9 °F 19.4 °F 37% 30.22 in 10.0 mi NNW 18.4 mph 25.3 mph N/A   Clear
10:55 AM 46.4 °F 39.5 °F 19.4 °F 34% 30.22 in 10.0 mi NNW 17.3 mph 25.3 mph N/A   Clear
11:15 AM 46.4 °F 39.0 °F 19.4 °F 34% 30.23 in 10.0 mi NNW 19.6 mph 27.6 mph N/A   Clear
11:35 AM 48.2 °F - 19.4 °F 32% 30.23 in 10.0 mi NNW 18.4 mph 26.5 mph N/A   Clear
12:15 PM 48.2 °F - 19.4 °F 32% 30.23 in 10.0 mi NW 20.7 mph 29.9 mph N/A   Clear
12:35 PM 50.0 °F - 19.4 °F 30% 30.23 in 10.0 mi NW 17.3 mph 27.6 mph N/A   Clear
12:55 PM 50.0 °F - 19.4 °F 30% 30.24 in 10.0 mi NW 19.6 mph 25.3 mph N/A   Clear
1:15 PM 50.0 °F - 19.4 °F 30% 30.23 in 10.0 mi NW 18.4 mph 25.3 mph N/A   Clear
1:35 PM 50.0 °F - 17.6 °F 28% 30.23 in 10.0 mi NW 17.3 mph 26.5 mph N/A   Clear
1:55 PM 51.8 °F - 17.6 °F 26% 30.23 in 10.0 mi NNW 18.4 mph 27.6 mph N/A   Clear
2:15 PM 53.6 °F - 19.4 °F 26% 30.23 in 10.0 mi NNW 15.0 mph 21.9 mph N/A   Clear
2:35 PM 53.6 °F - 17.6 °F 24% 30.24 in 10.0 mi NNW 21.9 mph 25.3 mph N/A   Clear
2:55 PM 53.6 °F - 17.6 °F 24% 30.24 in 10.0 mi North 17.3 mph 25.3 mph N/A   Clear
3:15 PM 53.6 °F - 19.4 °F 26% 30.24 in 10.0 mi NNW 20.7 mph 27.6 mph N/A   Clear
3:35 PM 53.6 °F - 19.4 °F 26% 30.25 in 10.0 mi NW 17.3 mph 26.5 mph N/A   Clear
3:55 PM 53.6 °F - 17.6 °F 24% 30.24 in 10.0 mi NW 21.9 mph 27.6 mph N/A   Clear
4:15 PM 53.6 °F - 17.6 °F 24% 30.25 in 10.0 mi North 17.3 mph 21.9 mph N/A   Clear
4:35 PM 53.6 °F - 19.4 °F 26% 30.25 in 10.0 mi NNW 18.4 mph 23.0 mph N/A   Clear
4:55 PM 53.6 °F - 19.4 °F 26% 30.25 in 10.0 mi NNW 18.4 mph 26.5 mph N/A   Clear
5:15 PM 53.6 °F - 19.4 °F 26% 30.26 in 10.0 mi NW 15.0 mph 23.0 mph N/A   Clear
5:35 PM 51.8 °F - 19.4 °F 28% 30.26 in 10.0 mi NW 11.5 mph 18.4 mph N/A   Clear
5:55 PM 51.8 °F - 19.4 °F 28% 30.26 in 10.0 mi NNW 13.8 mph 19.6 mph N/A   Clear
6:15 PM 50.0 °F - 21.2 °F 32% 30.27 in 10.0 mi NNW 11.5 mph - N/A   Clear
6:55 PM 48.2 °F - 21.2 °F 34% 30.30 in 10.0 mi NNW 9.2 mph - N/A   Clear
7:15 PM 46.4 °F 41.9 °F 21.2 °F 37% 30.30 in 10.0 mi NNW 9.2 mph - N/A   Clear
7:35 PM 46.4 °F 42.4 °F 21.2 °F 37% 30.31 in 10.0 mi NNW 8.1 mph - N/A   Clear
7:55 PM 44.6 °F 40.2 °F 23.0 °F 43% 30.31 in 10.0 mi NNW 8.1 mph - N/A   Clear
8:15 PM 44.6 °F 39.2 °F 23.0 °F 43% 30.31 in 10.0 mi North 10.4 mph - N/A   Clear
8:35 PM 44.6 °F 40.7 °F 23.0 °F 43% 30.32 in 10.0 mi North 6.9 mph - N/A   Clear
8:55 PM 42.8 °F 39.3 °F 23.0 °F 46% 30.32 in 10.0 mi NNW 5.8 mph - N/A   Clear
9:15 PM 41.0 °F 36.4 °F 23.0 °F 49% 30.33 in 10.0 mi NW 6.9 mph - N/A   Clear
9:35 PM 41.0 °F 35.8 °F 23.0 °F 49% 30.34 in 10.0 mi WNW 8.1 mph - N/A   Clear
9:55 PM 39.2 °F 32.5 °F 24.8 °F 56% 30.34 in 10.0 mi WNW 10.4 mph - N/A   Clear
10:15 PM 41.0 °F 34.3 °F 24.8 °F 53% 30.35 in 10.0 mi WNW 11.5 mph - N/A   Clear
10:35 PM 41.0 °F 35.2 °F 21.2 °F 45% 30.34 in 10.0 mi NW 9.2 mph - N/A   Clear
10:55 PM 39.2 °F 32.5 °F 19.4 °F 45% 30.35 in 10.0 mi NW 10.4 mph - N/A   Clear
11:15 PM 41.0 °F 33.5 °F 23.0 °F 49% 30.36 in 10.0 mi WNW 13.8 mph - N/A   Clear
11:35 PM 41.0 °F 36.4 °F 19.4 °F 42% 30.36 in 10.0 mi NW 6.9 mph - N/A   Clear
11:55 PM 39.2 °F 33.6 °F 19.4 °F 45% 30.36 in 10.0 mi WNW 8.1 mph - N/A   Clear